Regional Weather Roundup
Issued by NWS

Home | Current Version | Previous Version | Graphics & Text | Print | Product List | Glossary On
Versions: 1 2 3 4 5 6 7 8 9 10 11 12 13 14 15 16 17 18 19 20 21 22 23 24 25 26 27 28 29 30 31 32 33 34 35 36 37 38 39 40 41 42 43 44 45 46 47 48 49 50
000
ASUS43 KFSD 261310
RWRSD

WEATHER ROUNDUP FOR SOUTH DAKOTA
NATIONAL WEATHER SERVICE SIOUX FALLS SD
800 AM CDT MON SEP 26 2016

NOTE: "FAIR" INDICATES FEW OR NO CLOUDS BELOW 12,000 FEET WITH NO
SIGNIFICANT WEATHER AND/OR OBSTRUCTIONS TO VISIBILITY.


SDZ001>005-009-010-012>017-261400-
NORTHWEST AND NORTH CENTRAL SOUTH DAKOTA

CITY           SKY/WX    TMP DP  RH WIND       PRES   REMARKS
BUFFALO          N/A     44  38  79 NW10      30.18R
FAITH            N/A     44  39  82 W10       30.22S
MOBRIDGE       CLEAR     45  37  73 NW12      30.16F
$$

SDZ012>016-024>037-041>051-057-063-072>074-261400-
SOUTHWEST AND SOUTH CENTRAL SOUTH DAKOTA

CITY           SKY/WX    TMP DP  RH WIND       PRES   REMARKS
RAPID CTY ARPT CLEAR     43  35  73 W6        30.27S
PIERRE         CLEAR     43  35  73 W5        30.20S
CUSTER         CLEAR     42  31  64 CALM      30.35R
ELLSWORTH AFB  CLEAR     45  37  72 W9        30.26S
PHILIP         CLEAR     42  34  73 W13       30.24S
PINE RIDGE     CLEAR     34  29  82 W3        30.31R
WINNER         FAIR      48  35  60 CALM      30.23F
$$

SDZ004>011-016>023-039-040-261400-
NORTHEAST SOUTH DAKOTA

CITY           SKY/WX    TMP DP  RH WIND       PRES   REMARKS
ABERDEEN       CLEAR     41  35  79 W6        30.14S
WATERTOWN      CLEAR     48  36  63 W12       30.10S
BROOKINGS      CLEAR     44  37  76 W10       30.13R
SISSETON         N/A     51  35  54 NW16      30.05S
$$

SDZ017-020-022-023-036>040-048>070-261400-
SOUTHEAST SOUTH DAKOTA

CITY           SKY/WX    TMP DP  RH WIND       PRES   REMARKS
SIOUX FALLS    PTCLDY    45  37  73 W7        30.16R
HURON          CLEAR     44  37  76 W9        30.17R
CHAMBERLAIN    CLEAR     47  38  70 W7        30.22S
MITCHELL       CLEAR     45  37  73 W9        30.20R
YANKTON        CLEAR     48  37  66 W9        30.20R
$$

ABBREVIATIONS USED IN REMARKS
   TC - TEMPERATURE IN CELSIUS
  WCI - WIND CHILL INDEX
   HX - HEAT INDEX
  VSB - VISIBILITY





USA.gov is the U.S. government's official web portal to all federal, state and local government web resources and services.